Wind_Speed
35 35 33 31 34 37 37 37 35 31 32 37 38 37 34 34 32 31 27 21 18 17 18 21 23 22 21 22 24 26 29 31 31 32 32 33 34 34 34 34 34 36 37 39
38 36 32 34 38 40 40 40 38 33 34 40 41 41 38 35 34 31 28 26 21 18 20 23 24 24 24 25 27 30 33 34 35 36 36 37 38 38 37 37 37 39 41 43
37 34 34 38 41 43 42 41 38 35 36 42 43 44 41 38 35 31 27 24 20 19 22 25 27 27 27 28 30 33 35 37 37 38 39 39 40 41 41 41 42 44 46 48
35 32 33 37 40 42 42 39 38 37 39 42 45 48 44 42 38 33 27 23 21 23 25 28 29 30 31 32 33 36 38 39 39 39 41 42 43 44 44 44 45 47 50 52
32 28 31 35 36 39 38 36 38 39 41 44 46 49 47 45 42 34 27 24 25 27 29 30 31 32 33 34 36 38 40 40 40 41 42 44 45 46 47 47 48 51 54 57
34 31 32 33 34 37 37 37 40 41 43 46 45 47 49 44 39 34 30 28 29 31 32 32 32 34 35 37 39 41 42 42 42 42 44 46 47 48 48 49 51 54 58 61
32 32 32 32 32 34 36 36 38 41 43 45 41 45 45 41 37 34 33 34 34 34 34 34 34 36 38 39 41 43 45 45 44 44 47 48 49 50 50 51 54 58 61 63
33 31 28 30 30 29 33 34 37 40 42 43 41 44 40 38 36 36 38 38 38 39 38 38 38 38 39 41 43 45 46 47 47 48 50 51 51 50 50 52 57 60 62 61
36 33 27 27 27 28 29 32 34 39 42 44 43 42 39 36 35 35 35 36 38 39 38 36 35 35 37 40 44 46 47 49 50 51 52 53 52 50 51 55 59 62 61 59
36 34 28 27 27 27 28 29 35 40 42 45 44 42 38 33 31 31 32 33 34 35 34 33 33 34 38 41 43 46 50 52 53 53 53 53 51 50 53 56 60 59 57 56
37 35 30 28 26 25 26 29 33 37 41 45 47 43 35 32 30 29 29 29 31 32 35 37 37 38 40 43 45 48 52 54 54 54 52 50 48 49 52 56 57 55 54 55
40 38 35 32 31 28 29 31 33 36 38 42 46 42 36 34 32 31 31 31 31 32 34 36 38 39 41 44 47 50 53 54 53 51 48 46 47 49 53 54 52 52 53 52
42 42 40 36 35 34 33 34 35 38 40 42 44 42 36 35 35 34 34 34 34 35 37 39 41 43 44 46 49 51 50 46 43 43 45 47 48 51 52 51 51 52 51 49
45 45 44 42 40 38 36 36 37 39 41 44 45 44 40 37 36 35 35 35 36 38 40 42 44 46 48 46 44 42 41 42 46 48 48 48 49 50 50 50 51 50 48 47
52 51 49 48 47 45 43 41 40 40 41 43 45 45 44 43 41 39 38 39 39 40 41 43 45 48 48 45 41 40 42 48 51 50 48 47 48 48 48 49 48 47 46 46
56 58 58 56 55 54 51 48 47 46 45 45 45 45 46 47 46 45 44 43 43 45 46 48 50 51 51 46 41 42 46 49 48 46 45 45 46 47 47 47 46 45 46 47
52 56 60 62 62 62 60 56 55 54 54 53 52 50 49 49 49 48 47 46 48 50 51 53 54 53 50 46 46 48 49 46 43 43 43 44 46 46 45 44 44 45 47 49
44 49 54 58 60 63 61 60 60 60 59 60 60 58 57 55 54 53 51 51 53 55 57 58 56 54 51 50 49 48 44 41 40 41 43 44 45 44 43 43 44 46 49 51
40 43 46 49 53 56 56 56 56 55 54 54 55 56 57 56 57 56 55 55 56 57 57 55 52 48 45 44 43 40 38 38 40 42 43 42 41 41 42 43 46 49 51 52
39 42 44 47 50 52 52 52 52 51 49 47 48 49 51 52 52 52 51 51 51 50 49 46 44 40 36 36 35 34 36 38 41 41 40 39 39 40 43 45 48 49 51 51
34 36 39 42 45 47 48 48 48 46 44 43 43 43 45 46 46 47 47 46 44 43 40 37 32 28 29 30 31 33 36 38 39 38 36 36 39 41 44 47 48 49 49 49
29 31 32 33 34 34 37 37 38 38 36 35 35 36 37 38 39 39 39 37 36 35 33 27 23 24 25 28 31 33 35 35 35 34 35 37 40 43 45 46 47 47 46 46
29 29 28 28 27 27 27 27 28 28 27 27 27 29 30 30 30 30 28 28 29 28 23 20 19 21 24 27 30 32 32 32 31 32 35 38 41 43 44 44 44 43 43 42
30 30 29 27 25 26 25 25 25 25 25 24 22 22 23 22 21 21 23 25 24 20 17 16 17 20 23 26 28 28 28 28 29 32 36 39 41 41 41 41 40 40 40 39
28 29 28 26 26 25 25 24 23 23 22 20 17 16 15 15 17 18 18 17 15 13 13 14 17 20 23 25 24 24 24 26 29 33 36 38 39 39 38 38 37 37 37 36
20 21 20 21 22 22 21 19 18 16 13 12 12 11 12 13 14 14 13 12 11 10 11 13 16 19 21 20 19 20 23 27 31 34 36 37 36 36 36 36 36 35 35 33
Wind_Direction
245 245 243 243 243 243 244 247 247 245 247 250 253 256 254 253 254 257 261 262 270 284 298 307 310 308 306 310 317 321 322 322 322 325 327 330 331 330 328 326 326 325 323 320
245 245 245 244 244 244 245 247 249 248 248 250 252 254 255 253 255 260 259 257 258 271 287 297 303 306 306 308 313 317 317 316 316 319 322 325 329 329 326 325 325 325 324 322
249 246 242 242 243 245 247 249 250 248 245 250 254 254 253 252 253 256 257 256 259 269 280 289 296 302 305 307 308 311 312 311 312 314 317 319 324 326 324 323 323 324 323 322
249 248 246 245 246 248 248 249 249 246 243 244 250 252 251 252 252 253 253 255 260 268 276 282 289 295 299 301 303 305 305 307 308 309 311 313 316 319 320 320 321 321 320 319
250 250 249 248 248 249 249 246 247 245 245 246 248 254 256 254 253 255 254 256 260 266 273 278 284 289 292 295 297 298 299 301 302 303 305 308 310 314 316 317 318 318 318 317
251 250 250 252 250 249 247 243 245 247 248 250 252 255 257 256 259 259 259 261 263 267 271 276 280 284 287 290 291 291 292 294 295 296 299 303 306 310 312 313 314 315 316 316
253 252 254 255 253 250 249 246 245 246 248 253 254 256 258 259 261 263 264 265 266 267 269 272 277 282 285 286 285 285 286 287 289 291 294 298 303 306 307 309 311 313 314 314
247 244 250 256 256 253 251 248 245 246 249 254 256 257 259 261 263 266 267 267 266 268 270 273 277 280 281 281 281 282 283 285 286 288 291 293 298 301 304 307 310 311 312 312
250 244 238 244 248 244 243 245 247 248 252 255 258 261 263 264 267 270 271 270 269 271 273 275 276 277 278 280 282 282 283 283 283 285 288 291 294 298 303 307 308 309 309 310
253 247 233 232 238 239 239 239 241 245 252 258 262 263 265 268 271 273 273 273 271 270 270 273 276 279 282 284 286 287 287 287 285 286 289 291 294 299 302 305 306 307 308 309
252 250 235 228 233 233 235 238 242 247 251 256 261 265 271 274 275 275 276 276 275 272 271 274 280 283 284 286 288 290 290 290 289 288 289 292 297 302 305 305 306 307 309 311
251 252 249 237 235 236 238 241 243 247 250 254 260 266 270 272 274 274 274 276 278 278 278 281 285 286 287 288 291 292 292 289 287 289 294 300 306 307 306 307 307 309 310 311
251 254 255 252 249 244 244 246 247 249 252 255 260 266 269 270 273 275 276 278 281 285 287 288 290 290 290 291 294 293 291 291 298 307 312 312 310 308 308 308 309 310 311 310
250 253 255 254 253 253 252 251 252 253 254 257 261 267 269 270 272 274 277 280 284 288 290 290 291 292 293 292 293 293 296 307 316 318 316 312 309 308 308 309 311 312 311 309
246 249 252 254 255 255 255 256 258 260 260 261 263 265 268 270 271 273 276 278 282 286 289 291 292 294 296 292 292 297 304 313 316 316 313 311 309 310 310 311 312 311 309 309
246 248 250 252 254 256 258 259 262 264 266 267 267 267 268 269 270 272 274 277 281 285 288 289 293 296 296 293 295 303 312 315 315 313 311 311 311 312 311 311 310 309 310 312
248 249 251 253 255 258 259 261 263 266 268 269 269 270 270 271 272 272 274 277 281 285 287 290 293 295 294 294 301 310 314 312 311 311 311 312 312 312 311 310 310 311 313 314
255 253 254 256 258 259 263 264 264 264 265 266 267 268 269 271 273 274 276 279 282 285 287 290 292 291 292 294 301 307 309 309 310 311 313 313 313 312 311 312 313 315 316 315
260 260 259 259 260 262 263 265 266 265 265 265 265 266 267 269 270 273 276 278 280 283 285 288 288 287 288 293 299 303 306 308 310 312 313 313 313 313 314 315 316 317 316 315
262 261 261 261 262 264 265 264 265 266 267 265 264 264 265 267 269 271 272 274 276 279 280 279 274 275 283 293 299 304 307 309 312 313 313 313 313 314 316 317 318 317 316 315
265 263 262 261 262 264 265 267 268 268 268 266 265 264 264 265 266 268 269 271 274 275 268 260 262 276 289 297 301 305 309 312 313 313 312 313 315 316 318 319 319 318 317 318
270 269 266 265 265 266 265 267 268 270 270 269 266 264 263 263 264 266 268 269 268 258 247 252 270 285 293 298 303 307 311 313 312 312 313 315 317 319 321 321 320 321 322 323
270 269 268 267 267 267 267 269 270 270 269 267 265 264 263 262 262 262 260 257 248 239 251 266 280 290 296 302 308 311 312 312 312 313 315 318 321 322 323 323 324 325 327 328
268 265 263 262 262 264 267 269 269 269 267 265 263 262 262 262 257 251 249 241 238 248 262 275 286 295 302 308 311 312 311 311 314 316 319 322 324 325 325 326 328 330 332 332
268 263 259 257 257 259 263 265 266 265 262 259 254 250 245 244 244 242 241 239 242 252 267 282 296 305 309 310 310 310 311 315 318 321 324 326 327 327 329 331 334 335 336 336
267 264 259 254 254 256 257 258 255 247 233 218 215 220 227 232 231 231 235 240 246 261 282 298 307 309 310 311 311 313 317 321 324 328 329 329 329 331 333 335 337 339 340 341
Height
5829 5833 5836 5840 5841 5841 5842 5843 5846 5851 5850 5847 5846 5846 5848 5847 5848 5850 5851 5853 5854 5854 5854 5853 5851 5849 5847 5845 5843 5841 5840 5838 5836 5834 5832 5828 5825 5822 5819 5816 5812 5808 5804 5800
5822 5826 5831 5832 5832 5833 5834 5836 5839 5844 5843 5839 5838 5839 5840 5842 5843 5845 5846 5846 5846 5847 5848 5847 5845 5843 5841 5839 5837 5835 5833 5831 5829 5827 5824 5820 5817 5814 5811 5807 5803 5799 5795 5790
5814 5819 5821 5822 5823 5825 5827 5830 5833 5835 5834 5831 5831 5831 5833 5835 5837 5839 5840 5840 5840 5841 5841 5841 5840 5838 5836 5834 5832 5829 5827 5824 5821 5819 5816 5812 5809 5806 5803 5799 5794 5789 5784 5779
5805 5810 5812 5813 5815 5817 5819 5823 5824 5825 5825 5824 5823 5822 5827 5829 5831 5833 5834 5834 5834 5835 5835 5835 5834 5832 5830 5828 5826 5823 5820 5817 5814 5811 5808 5805 5802 5799 5795 5790 5785 5779 5774 5768
5799 5803 5803 5804 5808 5809 5812 5815 5814 5815 5816 5816 5816 5815 5819 5821 5824 5827 5827 5827 5828 5829 5829 5828 5827 5825 5823 5821 5819 5816 5813 5810 5807 5804 5801 5798 5795 5791 5786 5781 5775 5769 5763 5757
5794 5796 5796 5798 5800 5801 5803 5805 5805 5806 5807 5807 5811 5809 5809 5814 5817 5819 5820 5821 5821 5822 5821 5820 5819 5817 5815 5813 5811 5808 5805 5802 5799 5797 5793 5790 5786 5782 5777 5771 5765 5759 5752 5744
5788 5790 5791 5792 5794 5795 5796 5798 5798 5798 5798 5799 5804 5801 5803 5807 5810 5811 5812 5813 5814 5814 5814 5813 5811 5809 5808 5806 5803 5800 5797 5794 5791 5788 5784 5780 5776 5772 5767 5761 5754 5747 5739 5731
5779 5782 5785 5785 5787 5790 5789 5790 5792 5792 5792 5793 5795 5794 5799 5801 5802 5803 5803 5804 5805 5805 5805 5804 5803 5802 5800 5798 5794 5791 5788 5784 5781 5777 5774 5770 5766 5761 5756 5749 5742 5735 5727 5718
5771 5775 5779 5778 5779 5781 5782 5783 5785 5786 5785 5785 5787 5789 5792 5795 5796 5796 5796 5796 5796 5796 5796 5795 5794 5793 5791 5788 5785 5781 5778 5774 5770 5767 5763 5759 5755 5750 5744 5737 5730 5722 5714 5705
5765 5768 5772 5772 5773 5774 5776 5778 5779 5779 5779 5777 5778 5781 5786 5790 5790 5789 5788 5788 5787 5787 5787 5786 5785 5783 5781 5779 5776 5772 5768 5764 5759 5755 5751 5747 5742 5737 5731 5725 5718 5709 5701 5692
5758 5762 5767 5768 5768 5769 5770 5771 5771 5772 5773 5772 5770 5776 5781 5782 5782 5782 5781 5780 5779 5779 5778 5777 5776 5774 5772 5769 5766 5763 5758 5754 5749 5744 5740 5735 5731 5726 5719 5713 5705 5696 5688 5680
5751 5754 5758 5762 5764 5764 5765 5765 5766 5766 5766 5766 5764 5771 5773 5774 5775 5775 5774 5773 5772 5772 5770 5769 5767 5764 5762 5759 5756 5752 5747 5742 5738 5733 5729 5724 5719 5713 5706 5699 5691 5683 5676 5667
5744 5746 5750 5754 5758 5758 5758 5758 5759 5760 5760 5760 5759 5765 5766 5767 5767 5767 5767 5767 5766 5765 5763 5761 5758 5756 5752 5749 5745 5741 5736 5732 5728 5723 5718 5713 5707 5700 5693 5686 5678 5671 5663 5656
5736 5738 5741 5744 5747 5748 5750 5751 5752 5753 5753 5753 5754 5756 5759 5760 5760 5760 5760 5759 5759 5757 5755 5753 5749 5746 5743 5739 5735 5731 5727 5722 5717 5712 5707 5700 5694 5688 5681 5673 5666 5659 5652 5645
5728 5729 5730 5732 5735 5738 5740 5742 5743 5744 5745 5746 5747 5748 5750 5751 5752 5752 5752 5751 5750 5749 5746 5744 5740 5737 5734 5729 5724 5721 5717 5712 5707 5701 5695 5688 5682 5676 5669 5662 5655 5648 5641 5634
5716 5718 5719 5721 5724 5726 5729 5733 5734 5735 5737 5737 5738 5740 5741 5741 5742 5743 5743 5742 5741 5739 5737 5733 5730 5728 5724 5719 5715 5711 5707 5702 5696 5690 5684 5678 5671 5665 5658 5652 5645 5638 5631 5623
5704 5706 5707 5710 5713 5713 5717 5723 5725 5726 5727 5728 5728 5731 5730 5731 5732 5733 5733 5733 5731 5729 5726 5723 5720 5718 5715 5710 5706 5701 5697 5691 5686 5680 5674 5667 5661 5655 5648 5642 5635 5627 5620 5612
5694 5695 5696 5698 5701 5702 5709 5710 5712 5714 5716 5716 5716 5718 5719 5720 5720 5721 5722 5723 5721 5719 5715 5712 5710 5707 5704 5701 5696 5692 5687 5682 5676 5670 5664 5658 5651 5645 5638 5632 5624 5617 5609 5601
5685 5686 5687 5688 5688 5690 5695 5695 5696 5698 5701 5703 5703 5704 5706 5707 5707 5708 5710 5711 5710 5708 5705 5702 5699 5697 5694 5691 5688 5683 5678 5673 5667 5661 5655 5648 5642 5636 5629 5622 5614 5606 5598 5590
5675 5676 5677 5677 5677 5678 5681 5682 5682 5685 5688 5690 5690 5691 5693 5694 5696 5698 5698 5697 5697 5696 5695 5692 5690 5687 5685 5682 5679 5675 5670 5664 5659 5653 5646 5640 5634 5627 5620 5613 5605 5596 5588 5579
5665 5666 5666 5666 5666 5667 5668 5668 5670 5674 5676 5676 5677 5679 5681 5682 5684 5685 5685 5686 5687 5686 5685 5683 5680 5678 5677 5675 5671 5667 5662 5657 5651 5645 5639 5633 5626 5619 5612 5604 5595 5587 5578 5568
5656 5656 5656 5656 5657 5659 5657 5658 5659 5661 5662 5664 5665 5667 5669 5671 5672 5673 5675 5676 5677 5676 5674 5673 5673 5672 5670 5668 5664 5660 5655 5649 5644 5638 5632 5626 5619 5612 5603 5595 5586 5577 5568 5558
5648 5648 5647 5649 5651 5649 5649 5649 5651 5652 5654 5655 5656 5658 5660 5662 5663 5665 5667 5669 5669 5668 5667 5667 5667 5666 5665 5662 5658 5653 5648 5643 5637 5632 5626 5620 5612 5604 5595 5587 5578 5569 5560 5550
5639 5639 5639 5641 5642 5642 5642 5643 5644 5645 5646 5648 5650 5651 5653 5655 5657 5659 5661 5661 5662 5662 5663 5663 5663 5661 5659 5655 5651 5647 5642 5637 5632 5627 5621 5613 5605 5597 5588 5580 5571 5562 5553 5544
5630 5629 5631 5633 5635 5635 5636 5637 5638 5639 5640 5642 5644 5647 5649 5651 5653 5654 5655 5656 5657 5658 5659 5659 5658 5656 5653 5650 5646 5641 5637 5633 5628 5622 5614 5606 5598 5590 5582 5574 5565 5557 5548 5540
5622 5622 5624 5626 5627 5629 5630 5631 5632 5634 5636 5639 5642 5644 5646 5647 5649 5650 5652 5653 5654 5655 5655 5654 5653 5651 5648 5645 5641 5638 5634 5629 5623 5616 5608 5601 5593 5585 5577 5569 5561 5552 5544 5536